FW4751 Weather Reports


time (UTC)temp
C
wind
direction
speed
KPH
gust
KPH
rain 1hr
cm
rain 24hr
cm
rain mn
cm
humidity
%
barometer
mb
20260508025504 15 45 3.2 4.8 0.00 0.00 0.00 80 1017.3
20260508025004 15 45 1.6 9.7 0.00 0.00 0.00 80 1017.3
20260508024505 15 45 1.6 6.4 0.00 0.00 0.00 80 1017.3
20260508024005 16 45 3.2 8.0 0.00 0.00 0.00 79 1017.3
20260508023504 16 45 3.2 8.0 0.00 0.00 0.00 79 1017.2
20260508023005 16 45 3.2 6.4 0.00 0.00 0.00 78 1017.2
20260508022524 16 45 3.2 8.0 0.00 0.00 0.00 78 1017.1
20260508022004 16 45 3.2 8.0 0.00 0.00 0.00 78 1017.2
20260508021505 16 45 3.2 6.4 0.00 0.00 0.00 77 1017.2
20260508021004 16 45 3.2 8.0 0.00 0.00 0.00 77 1017.2
20260508020525 16 45 3.2 6.4 0.00 0.00 0.00 77 1017.2
20260508020004 16 45 3.2 8.0 0.00 0.00 0.00 77 1017.2
20260508015504 16 45 4.8 12.9 0.00 0.00 0.00 76 1017.2
20260508015005 16 45 3.2 11.3 0.00 0.00 0.00 76 1017.2
20260508014504 16 45 4.8 11.3 0.00 0.00 0.00 76 1017.1
20260508014004 16 45 6.4 14.5 0.00 0.00 0.00 75 1017.1
20260508013505 17 45 6.4 12.9 0.00 0.00 0.00 75 1017.3
20260508013004 17 45 4.8 12.9 0.00 0.00 0.00 75 1017.0
20260508012504 17 45 4.8 14.5 0.00 0.00 0.00 75 1017.0
20260508012004 17 45 6.4 16.1 0.00 0.00 0.00 75 1017.1
20260508011504 17 45 6.4 12.9 0.00 0.00 0.00 74 1017.2
20260508011004 17 45 4.8 11.3 0.00 0.00 0.00 74 1017.1
20260508010504 17 45 6.4 17.7 0.00 0.00 0.00 73 1017.0
20260508010004 17 45 6.4 14.5 0.00 0.00 0.00 72 1017.1
20260508005504 17 45 6.4 12.9 0.00 0.00 0.00 72 1017.2
20260508005004 17 45 4.8 16.1 0.00 0.00 0.00 71 1017.3
20260508004504 18 45 8.0 17.7 0.00 0.00 0.00 70 1017.4
20260508004004 18 23 6.4 12.9 0.00 0.00 0.00 69 1017.3
20260508003504 18 45 4.8 12.9 0.00 0.00 0.00 69 1017.3
20260508003006 18 338 4.8 16.1 0.00 0.00 0.00 69 1017.2
20260508002504 18 45 4.8 14.5 0.00 0.00 0.00 69 1017.2
20260508002004 18 45 6.4 16.1 0.00 0.00 0.00 68 1017.1
20260508001504 19 45 6.4 14.5 0.00 0.00 0.00 67 1017.1
20260508001004 19 45 4.8 12.9 0.00 0.00 0.00 67 1017.2
20260508000504 19 338 4.8 16.1 0.00 0.00 0.00 67 1017.2
20260508000004 19 45 4.8 12.9 0.00 0.00 0.00 66 1017.2
20260507235504 19 338 4.8 12.9 0.00 0.00 0.00 66 1017.2
20260507235024 19 45 6.4 14.5 0.00 0.00 0.00 65 1017.2
20260507234504 20 45 4.8 11.3 0.00 0.00 0.00 64 1017.2
20260507234005 20 338 4.8 12.9 0.00 0.00 0.00 66 1017.3
20260507233504 19 45 6.4 14.5 0.00 0.00 0.00 66 1017.2
20260507233004 19 338 3.2 11.3 0.00 0.00 0.00 67 1017.2
20260507232504 19 45 6.4 12.9 0.00 0.00 0.00 67 1017.3
20260507232024 20 45 4.8 11.3 0.00 0.00 0.00 67 1017.3
20260507231504 20 45 4.8 11.3 0.00 0.00 0.00 67 1017.4
20260507231004 20 45 4.8 8.0 0.00 0.00 0.00 68 1017.4
20260507230504 20 338 3.2 9.7 0.00 0.00 0.00 68 1017.4
20260507230024 19 45 4.8 11.3 0.00 0.00 0.00 68 1017.4
20260507225504 19 45 3.2 9.7 0.00 0.00 0.00 69 1017.4
20260507225004 19 45 4.8 11.3 0.00 0.00 0.00 69 1017.4
20260507224504 19 45 6.4 12.9 0.00 0.00 0.00 69 1017.5
20260507224004 20 45 6.4 14.5 0.00 0.00 0.00 68 1017.5
20260507223504 20 45 4.8 9.7 0.00 0.00 0.00 69 1017.4
20260507223004 19 45 4.8 11.3 0.00 0.00 0.00 69 1017.5
20260507222504 19 45 4.8 12.9 0.00 0.00 0.00 69 1017.6
20260507222004 19 45 4.8 12.9 0.00 0.00 0.00 68 1017.8
20260507221504 20 68 4.8 9.7 0.00 0.00 0.00 68 1017.8
20260507221024 20 338 4.8 11.3 0.00 0.00 0.00 69 1017.8
20260507220524 19 45 4.8 11.3 0.00 0.00 0.00 68 1017.9
20260507220044 19 315 3.2 8.0 0.00 0.00 0.00 70 1018.0
20260507215504 19 45 4.8 11.3 0.00 0.00 0.00 70 1018.0
20260507215024 19 338 4.8 9.7 0.00 0.00 0.00 70 1018.1
20260507214524 19 23 4.8 9.7 0.00 0.00 0.00 70 1018.2
20260507214004 18 45 6.4 14.5 0.00 0.00 0.00 71 1018.2
20260507213504 18 45 4.8 11.3 0.00 0.00 0.00 71 1018.2
20260507213004 18 45 6.4 12.9 0.00 0.00 0.00 70 1018.3
20260507212504 18 45 4.8 11.3 0.00 0.00 0.00 70 1018.4
20260507212004 18 45 4.8 14.5 0.00 0.00 0.00 70 1018.3
20260507211503 19 45 4.8 12.9 0.00 0.00 0.00 69 1018.4
20260507211024 19 45 4.8 11.3 0.00 0.00 0.00 70 1018.4
20260507210503 19 45 4.8 12.9 0.00 0.00 0.00 70 1018.6
20260507210003 18 45 4.8 14.5 0.00 0.00 0.00 70 1018.5
20260507205503 19 68 3.2 9.7 0.00 0.00 0.00 70 1018.6
20260507205024 18 45 4.8 11.3 0.00 0.00 0.00 70 1018.6
20260507204504 18 45 3.2 11.3 0.00 0.00 0.00 73 1018.7
20260507204004 18 68 4.8 11.3 0.00 0.00 0.00 72 1018.7
20260507203504 18 45 4.8 11.3 0.00 0.00 0.00 72 1018.7
20260507203003 18 45 3.2 8.0 0.00 0.00 0.00 71 1018.8
20260507202504 18 68 3.2 9.7 0.00 0.00 0.00 71 1018.9
20260507202004 18 45 3.2 9.7 0.00 0.00 0.00 72 1019.0
20260507201504 18 68 4.8 9.7 0.00 0.00 0.00 71 1019.1
20260507201003 18 68 3.2 8.0 0.00 0.00 0.00 71 1019.1
20260507200503 18 45 3.2 8.0 0.00 0.00 0.00 72 1019.1
20260507200004 18 45 3.2 11.3 0.00 0.00 0.00 72 1019.2
20260507195504 17 45 3.2 9.7 0.00 0.00 0.00 72 1019.3
20260507195004 18 45 3.2 6.4 0.00 0.00 0.00 72 1019.4
20260507194503 17 45 4.8 9.7 0.00 0.00 0.00 72 1019.3
20260507194003 18 45 3.2 12.9 0.00 0.00 0.00 71 1019.4
20260507193503 18 45 4.8 11.3 0.00 0.00 0.00 71 1019.4
20260507193003 18 45 3.2 8.0 0.00 0.00 0.00 71 1019.5
20260507192503 18 45 3.2 8.0 0.00 0.00 0.00 72 1019.5
20260507192004 17 45 3.2 8.0 0.00 0.00 0.00 73 1019.5
20260507191503 17 45 3.2 9.7 0.00 0.00 0.00 74 1019.6
20260507191004 17 45 3.2 8.0 0.00 0.00 0.00 74 1019.6
20260507190523 17 68 3.2 8.0 0.00 0.00 0.00 75 1019.8
20260507190004 17 113 1.6 6.4 0.00 0.00 0.00 77 1019.7
20260507185503 16 68 3.2 6.4 0.00 0.00 0.00 77 1019.8
20260507185003 16 45 3.2 4.8 0.00 0.00 0.00 78 1019.8
20260507184504 16 45 3.2 8.0 0.00 0.00 0.00 78 1019.8
20260507184003 16 45 3.2 9.7 0.00 0.00 0.00 78 1019.9
20260507183503 16 45 3.2 9.7 0.00 0.00 0.00 78 1019.9
20260507183003 16 68 3.2 6.4 0.00 0.00 0.00 78 1020.0
20260507182503 16 68 1.6 4.8 0.00 0.00 0.00 78 1020.0
20260507182023 16 45 3.2 6.4 0.00 0.00 0.00 78 1020.0
20260507181503 16 68 1.6 6.4 0.00 0.00 0.00 78 1019.9
20260507181003 16 45 1.6 4.8 0.00 0.00 0.00 78 1019.9
20260507180503 16 45 1.6 3.2 0.00 0.00 0.00 79 1019.9
20260507180003 16 45 1.6 4.8 0.00 0.00 0.00 79 1019.9
20260507175503 16 0.0 3.2 0.00 0.00 0.00 80 1019.9
20260507175003 16 45 1.6 4.8 0.00 0.00 0.00 80 1019.9
20260507174523 15 225 1.6 3.2 0.00 0.00 0.00 81 1019.8
20260507174003 15 293 1.6 3.2 0.00 0.00 0.00 81 1019.9
20260507173503 15 225 1.6 3.2 0.00 0.00 0.00 81 1020.0
20260507173004 15 293 1.6 3.2 0.00 0.00 0.00 82 1019.9
20260507172503 15 90 1.6 3.2 0.00 0.00 0.00 82 1019.9
20260507172023 15 315 1.6 3.2 0.00 0.00 0.00 83 1019.9
20260507171504 15 315 1.6 3.2 0.00 0.00 0.00 83 1019.8
20260507171003 15 315 1.6 3.2 0.00 0.00 0.00 84 1019.8
20260507170503 14 135 1.6 3.2 0.00 0.00 0.00 84 1019.8
20260507170003 14 135 1.6 3.2 0.00 0.00 0.00 84 1019.8
20260507165523 14 113 1.6 4.8 0.00 0.00 0.00 85 1019.9
20260507165023 14 113 1.6 4.8 0.00 0.00 0.00 85 1019.9
20260507164503 14 135 1.6 4.8 0.00 0.00 0.00 84 1019.7
20260507164008 14 135 1.6 3.2 0.00 0.00 0.00 85 1019.9
20260507163503 13 45 1.6 3.2 0.00 0.00 0.00 86 1019.8
20260507163003 13 45 1.6 3.2 0.00 0.00 0.00 86 1019.8
20260507162503 13 0 1.6 4.8 0.00 0.00 0.00 86 1019.9
20260507162003 13 45 1.6 4.8 0.00 0.00 0.00 86 1019.9
20260507161503 13 45 1.6 3.2 0.00 0.00 0.00 86 1019.8
20260507161003 13 45 1.6 3.2 0.00 0.00 0.00 86 1019.9
20260507160503 13 113 1.6 3.2 0.00 0.00 0.00 87 1019.9
20260507160003 13 0.0 3.2 0.00 0.00 0.00 87 1019.8
20260507155503 13 0 1.6 3.2 0.00 0.00 0.00 87 1019.8
20260507155003 13 270 1.6 3.2 0.00 0.00 0.00 87 1019.9
20260507154503 13 270 1.6 1.6 0.00 0.00 0.00 87 1019.9
20260507154003 13 45 1.6 3.2 0.00 0.00 0.00 87 1019.9
20260507153504 13 45 1.6 4.8 0.00 0.00 0.00 87 1019.8
20260507153002 13 0.0 1.6 0.00 0.00 0.00 87 1019.8
20260507152503 13 45 1.6 4.8 0.00 0.00 0.00 87 1019.7
20260507152005 13 0.0 3.2 0.00 0.00 0.00 87 1019.8
20260507151505 13 0.0 3.2 0.00 0.00 0.00 87 1019.8
20260507151005 13 0 1.6 3.2 0.00 0.00 0.00 87 1019.8
20260507150503 13 68 1.6 3.2 0.00 0.00 0.00 87 1019.7
20260507150006 13 0.0 3.2 0.00 0.00 0.00 87 1019.8
20260507145504 13 315 1.6 3.2 0.00 0.00 0.00 87 1019.7
20260507145025 13 0.0 1.6 0.00 0.00 0.00 87 1019.8
20260507144505 13 45 1.6 3.2 0.00 0.00 0.00 86 1019.8
20260507144005 13 338 1.6 4.8 0.00 0.00 0.00 86 1019.8
20260507143505 13 338 1.6 4.8 0.00 0.00 0.00 86 1019.8
20260507143005 13 45 1.6 3.2 0.00 0.00 0.00 86 1019.8
20260507142531 13 0 1.6 3.2 0.00 0.00 0.00 86 1019.7
20260507142025 13 45 1.6 3.2 0.00 0.00 0.00 86 1019.7
20260507141504 13 0 1.6 4.8 0.00 0.00 0.00 86 1019.6
20260507141004 13 45 1.6 4.8 0.00 0.00 0.00 86 1019.6
20260507140504 13 45 1.6 4.8 0.00 0.00 0.00 86 1019.6
20260507140006 13 0.0 3.2 0.00 0.00 0.00 86 1019.4
20260507135505 13 45 1.6 3.2 0.00 0.00 0.00 86 1019.5
20260507135005 13 45 1.6 4.8 0.00 0.00 0.00 86 1019.5
20260507134505 13 338 1.6 4.8 0.00 0.00 0.00 86 1019.5
20260507134005 13 45 1.6 6.4 0.00 0.00 0.00 86 1019.5
20260507133505 13 0 1.6 4.8 0.00 0.00 0.00 86 1019.5
20260507133004 13 45 1.6 4.8 0.00 0.00 0.00 86 1019.4
20260507132505 13 0 1.6 3.2 0.00 0.00 0.00 86 1019.3
20260507132025 13 45 1.6 3.2 0.00 0.00 0.00 86 1019.3
20260507131505 13 45 1.6 4.8 0.00 0.00 0.00 86 1019.2
20260507131005 13 45 3.2 6.4 0.00 0.00 0.00 86 1019.3
20260507130505 13 45 1.6 3.2 0.00 0.00 0.00 86 1019.3
20260507130005 13 45 1.6 6.4 0.00 0.00 0.00 86 1019.2
20260507125504 13 68 1.6 3.2 0.00 0.00 0.00 86 1019.3
20260507125004 13 0.0 3.2 0.00 0.00 0.00 86 1019.1
20260507124504 13 45 1.6 4.8 0.00 0.00 0.00 86 1019.2
20260507124004 13 45 1.6 4.8 0.00 0.00 0.00 86 1019.1
20260507123505 13 338 1.6 4.8 0.00 0.00 0.00 86 1019.1
20260507123005 13 45 1.6 4.8 0.00 0.00 0.00 86 1019.1
20260507122504 13 45 1.6 3.2 0.00 0.00 0.00 86 1019.2
20260507122005 13 338 1.6 4.8 0.00 0.00 0.00 87 1019.2
20260507121505 13 45 1.6 4.8 0.00 0.00 0.00 87 1019.1
20260507121004 13 45 1.6 3.2 0.00 0.00 0.00 87 1019.2
20260507120525 13 0 1.6 4.8 0.00 0.00 0.00 87 1019.2
20260507120005 13 0 1.6 3.2 0.00 0.00 0.00 87 1019.2
20260507115504 13 45 1.6 4.8 0.00 0.00 0.00 87 1019.3
20260507115025 13 0 1.6 4.8 0.00 0.00 0.00 87 1019.3
20260507114504 13 0.0 3.2 0.00 0.00 0.00 87 1019.4
20260507114004 13 45 1.6 4.8 0.00 0.00 0.00 87 1019.4
20260507113504 13 45 1.6 4.8 0.00 0.00 0.00 86 1019.4
20260507113005 13 0 1.6 4.8 0.00 0.00 0.00 87 1019.5
20260507112505 13 0 1.6 3.2 0.00 0.00 0.00 87 1019.4
20260507112026 13 0 1.6 4.8 0.00 0.00 0.00 87 1019.4
20260507111506 13 0 1.6 3.2 0.00 0.00 0.00 87 1019.4
20260507111004 13 0 1.6 4.8 0.00 0.00 0.00 86 1019.4
20260507110524 13 45 1.6 4.8 0.00 0.00 0.00 86 1019.4
20260507110005 13 45 1.6 3.2 0.00 0.00 0.00 86 1019.4
20260507105504 13 45 1.6 3.2 0.00 0.00 0.00 86 1019.4
20260507105005 13 0.0 1.6 0.00 0.00 0.00 86 1019.5
20260507104505 13 0.0 3.2 0.00 0.00 0.00 86 1019.5
20260507104004 13 0 1.6 3.2 0.00 0.00 0.00 86 1019.5
20260507103504 13 338 1.6 4.8 0.00 0.00 0.00 86 1019.5
20260507103004 13 0 1.6 4.8 0.00 0.00 0.00 86 1019.5
20260507102504 13 0 1.6 3.2 0.00 0.00 0.00 86 1019.6
20260507102024 13 338 1.6 4.8 0.00 0.00 0.00 86 1019.4
20260507101504 13 0 1.6 3.2 0.00 0.00 0.00 86 1019.6
20260507101004 13 0 1.6 3.2 0.00 0.00 0.00 86 1019.5
20260507100504 13 0 1.6 3.2 0.00 0.00 0.00 86 1019.3
20260507100005 13 338 1.6 4.8 0.00 0.00 0.00 86 1019.4
20260507095524 13 338 1.6 4.8 0.00 0.00 0.00 86 1019.4
20260507095004 13 0 1.6 6.4 0.00 0.00 0.00 86 1019.4
20260507094504 13 0 1.6 4.8 0.00 0.00 0.00 86 1019.4
20260507094005 13 0 3.2 6.4 0.00 0.00 0.00 86 1019.5
20260507093504 13 0 1.6 4.8 0.00 0.00 0.00 86 1019.5
20260507093004 13 45 1.6 4.8 0.00 0.00 0.00 86 1019.6
20260507092504 13 45 1.6 4.8 0.00 0.00 0.00 86 1019.6
20260507092004 13 0 1.6 3.2 0.00 0.00 0.00 87 1019.6
20260507091504 13 0 1.6 4.8 0.00 0.00 0.00 87 1019.6
20260507091004 13 0 1.6 3.2 0.00 0.00 0.00 87 1019.7
20260507090504 13 0 1.6 3.2 0.00 0.00 0.00 86 1019.7
20260507090005 13 0 1.6 3.2 0.00 0.00 0.00 86 1019.8
20260507085504 13 0.0 3.2 0.00 0.00 0.00 86 1019.7
20260507085004 13 0.0 3.2 0.00 0.00 0.00 86 1019.9
20260507084504 13 0.0 1.6 0.00 0.00 0.00 86 1019.8
20260507084004 13 0.0 1.6 0.00 0.00 0.00 86 1019.8
20260507083504 13 0.0 1.6 0.00 0.00 0.00 86 1019.7
20260507083024 13 0.0 1.6 0.00 0.00 0.00 86 1019.9
20260507082504 13 203 1.6 4.8 0.00 0.00 0.00 86 1019.8
20260507082024 13 158 1.6 4.8 0.00 0.00 0.00 86 1019.8
20260507081505 13 180 1.6 3.2 0.00 0.00 0.00 86 1019.8
20260507081004 13 23 1.6 3.2 0.00 0.00 0.00 86 1019.9
20260507080504 13 0.0 1.6 0.00 0.00 0.00 85 1019.8
20260507080024 13 0.0 1.6 0.00 0.00 0.00 85 1019.9
20260507075524 13 0.0 1.6 0.00 0.00 0.00 85 1019.9
20260507075004 13 0.0 3.2 0.00 0.00 0.00 85 1019.9
20260507074504 13 0.0 3.2 0.00 0.00 0.00 85 1019.9
20260507074004 13 0.0 1.6 0.00 0.00 0.00 85 1019.8
20260507073504 13 0.0 3.2 0.00 0.00 0.00 85 1019.7
20260507073004 13 0.0 1.6 0.00 0.00 0.00 85 1019.8
20260507072524 13 0.0 3.2 0.00 0.00 0.00 85 1019.8
20260507072003 13 0.0 1.6 0.00 0.00 0.00 84 1019.9
20260507071504 13 0.0 3.2 0.00 0.00 0.00 84 1019.9
20260507071023 13 45 1.6 3.2 0.00 0.00 0.00 84 1019.8
20260507070504 13 0.0 3.2 0.00 0.00 0.00 84 1019.9
20260507070010 13 0.0 1.6 0.00 0.00 0.00 84 1019.8
20260507065504 13 0.0 3.2 0.00 0.00 0.00 84 1019.9
20260507065003 13 0.0 1.6 0.00 0.00 0.00 84 1019.9
20260507064504 13 45 1.6 4.8 0.00 0.00 0.00 84 1020.0
20260507064004 13 45 1.6 3.2 0.00 0.00 0.00 84 1020.0
20260507063524 13 45 1.6 4.8 0.00 0.00 0.00 85 1019.9
20260507063003 13 0.0 4.8 0.00 0.00 0.00 85 1019.9
20260507062504 13 45 1.6 4.8 0.00 0.00 0.00 85 1019.9
20260507062003 13 45 1.6 3.2 0.00 0.00 0.00 85 1019.9
20260507061503 13 45 1.6 3.2 0.00 0.00 0.00 85 1020.0
20260507061004 13 45 1.6 3.2 0.00 0.00 0.00 85 1020.0
20260507060504 13 45 1.6 3.2 0.00 0.00 0.00 85 1019.9
20260507060004 13 0.0 3.2 0.00 0.00 0.00 85 1020.0
20260507055503 13 45 1.6 3.2 0.00 0.00 0.00 85 1019.9
20260507055004 13 0.0 3.2 0.00 0.00 0.00 85 1020.0
20260507054504 13 0.0 1.6 0.00 0.00 0.00 85 1019.9
20260507054003 13 0.0 1.6 0.00 0.00 0.00 84 1019.9
20260507053603 13 0.0 1.6 0.00 0.00 0.00 84 1020.0
20260507053023 13 0.0 1.6 0.00 0.00 0.00 83 1019.9
20260507052503 13 0.0 1.6 0.00 0.00 0.00 83 1019.9
20260507052004 13 0.0 1.6 0.00 0.00 0.00 83 1020.0
20260507051504 13 0.0 3.2 0.00 0.00 0.00 83 1019.9
20260507051003 14 0 1.6 3.2 0.00 0.00 0.00 82 1019.9
20260507050503 14 0.0 1.6 0.00 0.00 0.00 82 1019.9
20260507050004 14 0.0 3.2 0.00 0.00 0.00 82 1020.0
20260507045503 14 0.0 3.2 0.00 0.00 0.00 82 1019.9
20260507045003 14 0.0 3.2 0.00 0.00 0.00 81 1019.9
20260507044504 14 45 1.6 3.2 0.00 0.00 0.00 81 1019.9
20260507044003 14 45 1.6 3.2 0.00 0.00 0.00 81 1020.0
20260507043503 14 45 1.6 6.4 0.00 0.00 0.00 81 1019.9
20260507043004 14 45 1.6 4.8 0.00 0.00 0.00 80 1019.8
20260507042503 14 45 1.6 6.4 0.00 0.00 0.00 80 1019.8
20260507042003 15 45 1.6 4.8 0.00 0.00 0.00 80 1019.7
20260507041503 15 45 1.6 4.8 0.00 0.00 0.00 79 1019.8
20260507041003 15 45 3.2 8.0 0.00 0.00 0.00 79 1019.6
20260507040503 15 338 3.2 6.4 0.00 0.00 0.00 78 1019.5
20260507040003 15 45 1.6 11.3 0.00 0.00 0.00 78 1019.4
20260507035503 15 338 3.2 8.0 0.00 0.00 0.00 78 1019.4
20260507035003 15 338 3.2 8.0 0.00 0.00 0.00 77 1019.4
20260507034503 15 338 3.2 11.3 0.00 0.00 0.00 77 1019.4
20260507034023 15 0 4.8 12.9 0.00 0.00 0.00 77 1019.3
20260507033503 16 45 3.2 9.7 0.00 0.00 0.00 76 1019.3
20260507033003 16 45 3.2 9.7 0.00 0.00 0.00 76 1019.2
20260507032504 16 45 3.2 8.0 0.00 0.00 0.00 75 1019.0
20260507032003 16 45 3.2 8.0 0.00 0.00 0.00 75 1019.0
20260507031503 16 45 3.2 9.7 0.00 0.00 0.00 74 1018.9
20260507031003 16 338 3.2 8.0 0.00 0.00 0.00 74 1018.9
20260507030503 17 23 3.2 9.7 0.00 0.00 0.00 73 1018.7
20260507030003 17 338 3.2 9.7 0.00 0.00 0.00 73 1018.8